Location: Aula-Vintri
(58.3875°N, 22.4322°E)
Time: 02:37:27
(UTC+00:00)

CZ-2C R/B - Pass Details

Date: 13 October 2019
Orbit: 784 x 871 km, 98.3° (Epoch: 14 November)

Event Time Altitude Azimuth Distance (km) Brightness Sun altitude
Rises 19:23:56 0° 17° (NNE) 3,476 6.2 -29.7°
Reaches altitude 10° 19:26:23 10° 21° (NNE) 2,531 5.4 -30.0°
Enters shadow 19:29:12 30° 31° (NNE) 1,520 4.0 -30.2°
